Location: Unspecified
(0.0000°N, 0.0000°E)
Time: 08:04:38
(UTC+00:00)

Tiros 1 despin weight - Pass Details

Date: 03 October 2023
Orbit: 583 x 627 km, 48.2° (Epoch: 05 December)

Event Time Altitude Azimuth Distance (km) Brightness Sun altitude
Rises 15:15:18 0° 223° (SW) 2,911 ? 38.3°
Reaches altitude 10° 15:17:38 10° 225° (SW) 2,002 ? 37.7°
Maximum altitude 15:22:14 72° 309° (NW) 659 ? 36.6°
Drops below altitude 10° 15:26:47 10° 33° (NNE) 1,983 ? 35.5°
Sets 15:29:06 0° 35° (NE) 2,881 ? 34.9°
